Tracking 32412 objects as of 7-Dec-2025
HD Live streaming from Space Station
objects crossing your sky now

SHIYAN 27D

Track SHIYAN 27D now!
10-day predictions


NORAD ID: 63602
Int'l Code: 2025-078D
Perigee: 1,052.4 km
Apogee: 1,053.5 km
Inclination: 99.7 °
Period: 106.1 minutes
Semi major axis: 7423 km
RCS: Unknown
Launch date: April 18, 2025
Source: People's Republic of China (PRC)
Launch site: Taiyaun Space Center, China (TSC)
Your satellite tracking list
Your tracking list is empty




NASA's NSSDC Master Catalog

Two Line Element Set (TLE):
1 63602U 25078D   25340.59906355  .00000045  00000-0  12575-3 0  9997
2 63602  99.6953 345.6773 0000757  93.8577 266.2648 13.57226627 31406
Source of the keplerian elements: AFSPC